Theta_e
311 314 315 314 313 312 311 312 313 314 314 313 315 315 315 315 315 316 316 317 316 316 317 315 315 315 317 319 330 344 347 347 347 346 346 345 345 346 346 345 346 345 343 341
313 315 314 312 311 311 312 313 314 314 314 313 316 316 316 315 315 316 316 316 317 317 317 318 316 316 319 318 322 331 344 348 347 346 346 345 345 345 345 344 343 340 342 342
314 313 311 312 312 313 314 314 314 315 315 316 316 316 316 315 315 315 315 316 317 317 317 318 318 317 322 323 326 331 339 345 346 345 346 346 345 344 344 344 343 341 340 340
314 313 312 312 313 313 315 313 314 316 318 318 316 319 317 316 316 316 315 316 317 317 317 316 319 319 321 325 325 330 336 342 344 345 345 345 344 345 344 343 342 340 338 338
315 313 313 314 314 313 315 317 318 318 318 318 317 318 316 316 316 316 316 316 316 316 316 318 318 317 317 320 326 328 335 341 344 344 345 345 346 345 345 344 343 342 341 337
313 312 313 314 315 317 317 318 319 317 317 318 317 318 317 316 316 316 315 315 315 317 317 318 317 316 316 317 323 327 333 340 344 346 346 346 346 346 344 345 344 344 344 345
314 314 314 317 317 318 319 319 318 317 318 318 316 317 316 316 315 316 317 317 317 318 318 318 318 319 317 315 319 325 328 335 338 344 347 347 346 345 344 344 343 343 342 342
316 316 318 318 317 317 319 317 316 318 314 314 314 316 314 316 318 317 317 317 317 318 318 318 317 317 318 317 315 322 326 330 333 333 335 335 335 336 336 338 336 337 338 339
319 318 317 317 318 317 319 317 318 322 316 317 313 314 316 317 319 318 318 317 318 317 317 318 319 317 316 320 319 319 322 327 327 326 326 325 326 326 325 325 325 330 330 332
315 315 314 315 317 318 318 317 319 318 318 316 313 318 318 318 320 318 317 317 317 317 317 317 317 318 316 315 320 320 321 323 323 322 321 320 319 320 321 321 322 323 325 325
316 314 313 313 314 313 318 319 319 317 317 318 317 314 318 318 318 317 316 316 315 315 315 316 317 316 317 317 316 320 319 318 319 322 322 323 324 324 320 320 321 322 322 323
315 317 317 313 311 311 312 313 314 317 315 319 318 315 312 318 316 315 316 316 314 313 313 313 314 314 315 316 317 317 319 320 319 317 319 321 323 323 324 323 321 321 321 322
315 316 314 312 313 311 315 315 315 317 316 316 317 314 314 316 314 314 316 315 314 312 312 312 311 311 312 313 316 316 315 315 315 317 318 319 320 322 324 324 324 323 324 323
315 314 314 313 311 312 313 313 314 314 316 314 313 313 314 314 315 315 315 314 312 312 312 311 311 311 310 312 313 313 312 312 312 313 314 317 320 320 322 323 324 321 322 322
313 315 314 313 312 311 312 312 312 314 314 315 314 314 315 316 316 315 313 313 312 312 311 310 309 310 310 310 310 310 311 311 311 310 311 313 315 318 319 320 321 320 321 322
311 315 314 313 312 311 312 311 312 313 313 313 314 317 314 314 314 314 314 312 312 311 309 309 309 310 310 310 309 309 309 309 309 309 310 310 311 313 316 317 318 319 320 321
312 313 312 310 311 312 313 312 312 313 314 316 317 315 314 315 314 313 311 310 310 309 309 309 309 310 309 309 309 309 309 309 308 309 309 309 310 311 312 315 317 318 319 318
311 311 312 312 312 315 313 315 315 316 316 316 316 314 313 312 310 310 309 309 309 308 309 309 309 310 309 308 308 308 309 308 308 308 308 309 309 310 310 312 314 316 317 316
309 310 313 315 315 313 312 314 315 315 315 313 312 312 311 310 309 309 308 309 308 308 309 310 308 308 309 308 309 309 309 308 307 308 308 308 308 309 310 311 312 314 315 315
307 310 314 315 318 316 312 315 311 312 316 312 310 310 309 309 311 310 308 308 308 308 307 308 307 306 306 306 307 306 306 307 307 307 308 308 308 308 308 310 311 312 313 314
315 314 314 315 318 316 312 311 311 316 315 309 308 308 308 309 308 308 307 307 306 306 306 305 305 305 304 302 303 304 304 305 306 306 308 308 307 307 307 308 309 311 312 312
318 319 317 316 318 317 311 312 313 312 309 308 307 307 307 307 306 307 306 306 305 305 303 302 303 301 300 300 299 300 301 301 302 303 304 306 307 307 307 308 308 310 311 312
317 316 317 316 316 311 310 310 308 307 307 306 305 305 306 306 306 305 305 304 303 302 302 302 300 299 299 298 298 298 298 299 300 301 302 303 304 305 306 308 308 309 310 311
315 311 316 315 311 310 309 307 307 305 305 304 305 306 306 305 305 304 303 302 302 301 300 299 299 298 298 298 298 298 298 298 299 300 300 302 303 304 305 306 307 307 308 310
311 312 313 313 311 310 307 308 306 305 304 304 304 304 304 304 303 302 301 301 300 298 298 298 299 300 300 300 301 302 300 299 300 299 299 301 303 304 305 305 306 307 309 310
311 312 314 314 307 308 307 306 305 304 304 304 304 304 303 303 302 301 300 299 297 296 298 299 299 299 300 301 303 299 298 298 301 299 300 301 304 303 304 305 306 306 308 309
Wind_Speed
2 5 9 8 7 3 3 4 7 10 12 5 14 15 13 15 13 14 14 13 10 13 15 20 20 19 22 28 25 28 28 33 29 31 31 28 30 29 27 26 24 25 31 35
3 9 10 6 5 6 6 7 10 10 10 5 15 18 17 13 13 15 15 15 16 11 12 13 16 15 15 27 34 33 33 29 31 30 30 23 26 24 24 22 25 29 29 31
8 2 8 7 6 7 8 7 9 12 9 11 17 22 14 9 12 14 14 14 15 16 16 13 12 11 14 17 25 30 34 32 29 26 24 17 15 13 18 23 24 33 32 28
7 6 8 5 7 9 11 6 7 6 9 12 11 18 16 17 19 15 16 15 15 16 14 13 13 13 13 17 20 21 24 27 27 27 27 26 25 20 22 26 27 26 30 30
3 3 3 4 5 8 8 1 5 8 12 11 14 17 15 13 16 20 18 20 20 13 10 13 14 19 18 14 17 19 19 22 25 29 30 29 25 24 20 23 23 25 25 28
8 1 4 5 2 1 2 6 8 3 8 14 17 15 16 17 16 13 14 15 11 12 12 11 15 19 20 16 14 16 17 20 23 27 28 29 27 25 19 20 23 21 21 22
7 9 6 2 5 1 1 3 8 9 10 15 5 14 18 24 22 16 12 8 9 10 11 12 14 15 22 19 17 18 20 21 20 21 22 23 22 20 19 18 17 16 16 17
4 5 3 3 2 1 2 2 4 10 13 19 15 10 8 11 10 6 7 9 10 12 10 11 13 15 22 22 17 19 22 23 21 19 17 17 19 18 16 15 14 13 13 15
3 3 2 3 2 1 4 4 2 5 9 9 7 12 18 2 10 12 12 13 13 13 11 13 13 12 17 20 16 16 20 20 20 19 18 19 17 15 16 16 16 13 14 12
2 4 2 2 4 5 2 7 2 1 4 6 8 12 7 9 11 13 15 14 14 15 15 13 14 17 13 13 11 8 14 20 20 21 23 22 22 20 19 18 16 14 13 12
4 3 1 2 5 6 3 4 2 0 3 4 8 6 4 7 6 10 12 10 13 13 14 15 14 18 17 14 8 4 8 6 6 13 13 15 20 21 20 19 18 17 14 13
2 3 4 6 2 4 6 7 10 5 5 6 7 15 10 6 6 12 11 10 11 12 12 13 14 16 17 17 16 14 3 7 10 9 11 14 13 15 16 17 18 19 17 15
7 3 3 3 4 3 5 8 7 2 1 13 10 9 1 8 18 18 11 11 12 13 15 14 13 12 14 17 13 12 14 10 9 14 19 17 16 16 19 21 20 20 19 17
9 5 9 8 7 2 6 9 11 11 9 14 18 24 22 19 18 15 12 13 16 17 17 16 16 14 14 13 8 7 8 11 13 10 8 13 17 22 23 22 22 23 22 19
3 7 7 10 11 9 14 17 16 17 18 15 20 20 21 19 16 12 12 15 17 18 20 20 17 16 16 16 17 15 9 12 11 14 13 10 11 15 19 19 22 22 20 23
2 5 2 10 12 14 18 19 18 18 17 19 20 18 5 6 9 13 15 19 22 22 22 20 20 18 18 21 19 18 18 17 17 19 18 15 10 10 16 20 21 22 23 22
3 3 2 6 2 9 13 9 11 10 10 10 13 15 16 18 16 16 19 19 22 22 21 22 22 21 23 26 27 24 21 19 20 23 21 22 16 15 13 13 19 23 25 26
5 3 3 5 7 5 4 0 2 7 11 12 15 17 14 14 18 21 20 21 22 22 24 23 21 23 28 34 34 32 30 27 26 28 29 28 22 21 17 13 15 19 23 26
9 7 3 3 4 12 1 1 3 4 12 10 8 11 16 20 23 23 15 17 20 24 26 25 31 34 34 36 36 35 34 32 33 33 32 31 29 26 22 20 19 18 20 21
7 5 5 3 4 4 4 2 4 4 12 2 13 18 21 21 15 18 20 23 24 23 28 27 40 35 37 35 33 30 34 37 35 36 37 35 33 30 28 27 24 20 21 23
4 2 10 8 5 6 3 5 6 5 6 15 17 19 21 17 16 26 26 24 21 29 34 39 38 35 32 41 37 34 35 34 35 36 35 35 35 32 30 28 26 25 24 21
6 4 3 4 5 5 5 4 5 9 13 16 20 20 21 22 24 24 24 27 28 24 29 37 28 28 39 36 33 32 31 41 38 37 38 36 35 34 32 31 29 28 26 25
3 3 2 4 2 1 3 8 5 11 16 18 20 22 21 23 23 26 27 27 25 26 21 31 29 30 35 34 32 27 37 39 38 36 37 39 37 35 36 35 32 29 28 27
2 2 2 2 1 2 7 4 10 13 16 19 19 19 19 22 26 28 26 24 23 21 23 30 27 21 22 31 31 33 37 38 37 34 33 31 32 32 33 31 31 29 29 28
2 3 2 4 5 7 2 8 15 17 18 20 20 20 20 21 27 26 24 24 22 21 26 29 18 17 20 31 31 25 24 28 30 32 28 26 28 22 30 31 29 29 30 31
3 2 3 2 2 4 11 13 16 19 20 20 19 21 21 21 26 25 23 21 20 20 27 19 23 23 26 28 18 20 18 19 6 18 20 20 19 27 21 19 22 29 23 28
Wind_Direction
87 217 227 225 212 213 226 237 267 274 278 273 278 288 289 289 292 284 288 285 269 277 289 296 296 280 261 247 228 220 215 213 198 195 196 200 209 208 215 221 220 223 225 222
214 255 262 205 191 214 227 268 283 280 264 238 289 287 295 270 271 272 272 283 293 281 283 293 305 284 257 245 232 220 214 209 205 200 201 199 212 216 220 222 220 228 226 227
226 178 111 169 205 221 247 257 276 289 303 278 286 286 279 265 257 257 263 259 268 278 281 286 293 287 260 245 238 223 214 207 203 202 196 190 185 208 213 224 223 222 223 226
244 236 244 228 237 213 270 209 263 275 307 302 345 295 289 294 285 274 267 263 261 264 265 277 285 286 274 257 236 232 224 211 203 197 195 190 194 198 215 219 220 222 223 223
204 199 205 242 249 187 281 174 264 281 284 293 281 276 289 278 275 284 280 275 277 285 283 287 291 295 296 276 251 229 220 214 205 200 199 196 200 207 213 213 216 216 220 222
258 206 238 265 96 220 15 289 283 269 278 263 278 267 293 297 299 298 286 285 300 305 308 304 303 303 290 284 254 231 212 210 207 203 201 200 201 203 204 205 215 213 213 214
265 255 253 192 227 122 183 306 288 271 261 276 331 300 279 297 302 300 309 330 347 337 338 334 334 324 307 284 256 230 217 216 206 205 204 203 205 204 204 204 208 215 222 223
253 262 174 128 227 205 145 251 263 291 293 298 304 264 280 346 16 10 5 356 338 358 5 7 349 326 318 299 265 242 223 214 203 199 196 192 192 188 189 191 197 206 219 233
199 249 89 58 127 218 150 228 76 289 276 285 270 282 282 345 10 3 3 3 1 337 327 344 355 345 319 315 286 254 234 217 195 190 183 181 182 183 186 189 197 203 209 217
170 267 1 85 155 69 247 142 214 167 282 277 291 288 285 327 339 343 353 356 350 356 341 326 335 335 341 320 301 265 232 211 189 188 190 185 180 183 180 179 185 194 203 203
151 224 152 238 216 234 179 202 158 195 245 273 295 286 265 292 309 330 338 348 351 351 350 349 338 325 328 1 347 223 203 191 198 199 197 196 185 183 180 179 182 191 197 204
145 175 234 244 143 280 239 240 225 225 216 237 284 280 269 245 308 331 326 332 341 339 347 340 338 344 349 343 345 350 287 234 239 242 217 218 206 187 188 191 189 191 193 196
177 194 256 198 157 174 210 194 198 190 290 254 264 267 245 262 295 313 307 325 333 335 332 332 333 332 336 342 339 343 339 341 300 237 224 222 223 208 207 203 196 192 188 192
169 176 239 259 288 188 240 231 231 246 263 271 254 276 291 300 304 305 313 327 329 325 325 326 327 327 326 328 337 356 356 358 351 344 309 258 236 221 219 208 201 196 193 194
213 243 225 251 266 255 267 270 262 248 256 253 274 286 300 308 309 308 309 312 315 316 318 319 320 317 317 320 315 314 313 314 324 327 328 319 284 252 228 215 203 200 201 195
178 235 223 270 269 268 275 269 261 255 253 263 270 283 325 306 299 300 310 314 312 310 311 311 308 305 304 305 306 299 302 305 306 296 295 295 299 293 245 224 216 205 201 195
202 198 262 281 297 301 273 272 261 258 245 256 270 296 312 306 308 308 307 303 300 302 304 304 303 299 294 291 291 282 272 271 271 269 265 268 265 261 264 239 219 213 201 192
182 190 195 282 306 251 46 11 255 256 271 274 280 297 314 306 309 301 298 297 298 300 301 300 297 291 286 289 285 278 271 270 265 261 260 258 251 249 244 241 222 211 205 195
210 203 233 254 250 299 305 109 280 302 296 313 313 313 313 314 313 294 302 302 300 301 297 294 296 294 291 287 277 271 265 269 274 266 255 247 246 242 240 234 230 215 215 212
164 219 218 172 249 271 67 116 346 307 288 52 333 315 315 316 302 298 313 306 299 296 291 290 287 287 285 283 279 274 272 272 264 258 252 245 238 237 234 232 228 224 219 221
146 189 222 235 248 269 29 340 313 277 332 323 324 312 310 302 290 298 300 299 297 292 294 292 290 280 287 285 279 274 274 266 262 261 253 237 233 233 235 235 232 224 224 223
187 193 194 207 240 262 19 337 323 334 313 313 312 313 307 298 297 298 301 299 301 303 302 295 287 289 284 280 275 271 266 267 262 254 250 242 231 232 235 229 229 226 221 218
215 218 199 221 286 107 3 295 323 321 310 315 313 310 303 303 305 303 303 304 304 301 298 297 294 290 289 282 272 263 261 262 257 249 243 240 244 238 231 223 219 221 219 221
148 157 224 270 149 273 307 173 327 328 319 318 314 307 311 308 307 306 307 307 306 309 307 305 299 292 288 288 280 267 264 257 250 242 238 234 228 229 220 213 214 216 220 221
9 188 207 261 286 322 243 306 327 323 321 321 319 316 308 305 304 309 310 310 309 308 308 305 301 298 296 297 292 290 292 281 254 227 221 223 217 227 199 199 204 213 217 214
198 215 232 280 18 282 296 312 320 322 322 323 323 317 314 311 307 313 310 310 310 308 309 309 308 306 307 307 315 323 321 325 185 179 201 200 203 202 213 203 203 207 220 215